Location: Newark
(45.8667°N, 9.7333°E)
Time: 14:58:14
(UTC+00:00)

Transit 4A - Pass Details

Date: 01 February 2020
Orbit: 872 x 973 km, 66.8° (Epoch: 22 February)

Event Time Altitude Azimuth Distance (km) Brightness Sun altitude
Rises 10:49:54 0° 330° (NNW) 3,476 10.4 26.1°
Reaches altitude 10° 10:53:14 10° 349° (N) 2,531 9.7 26.3°
Maximum altitude 10:57:12 18° 32° (NNE) 2,001 9.4 26.4°
Drops below altitude 10° 11:01:08 10° 75° (ENE) 2,531 10.2 26.5°
Sets 11:04:28 0° 94° (E) 3,477 11.0 26.6°
